Flag for Germany Weather past 2 weeks in Osnabrück, Lower Saxony, Germany

Now
48 °F

Light rain. Partly cloudy.


Feels Like: 45 °F
Forecast: 39 / 50 °F
Wind: 8 mph from Northwest

Location: Muenster / Osnabrueck


UV Index: 0 (Low)

Visibility: 6 mi


Pressure: 29.89 "Hg

Humidity: 94%

Dew point: 46 °F

Location of OsnabrückLocation

Historic Weather in Osnabrück

°F

Osnabrück temperature yesterday

Maximum temperature yesterday: 63 °F (at 4:50 PM)
Minimum temperature yesterday: 37 °F (at 4:20 AM)
Average temperature yesterday: 51 °F

Past Weeks' High & Low Weather Summary

 TemperatureHumidityPressure
High73 °F (Apr 3, 3:20 PM)100% (Apr 3, 5:50 AM)30.48 "Hg (Apr 3, 5:50 AM)
Low28 °F (Apr 16, 6:20 AM)29% (Apr 17, 3:50 PM)29.59 "Hg (Apr 3, 3:20 PM)
Average52 °F74%30.03 "Hg
* Reported Apr 2 11:20 PM — Apr 17 11:20 PM, Osnabrück, Weather by CustomWeather, © 2014

Note: Actual official high and low records may vary slightly from our data, if they occured in-between our weather recording intervals... More about our weather records

Advertising

Historic Weather Conditions — Data for Previous 24 hours

 ConditionsComfort  
Time TempWeatherWind HumidityBarometerVisibility
11:20 PM
Apr 17
52 °FLight rain. Partly cloudy.12 mph72%29.89 "HgN/A
10:50 PM54 °FClear.9 mph58%29.89 "Hg10 mi
10:20 PM54 °FClear.10 mph54%29.89 "Hg10 mi
9:50 PM55 °FLight rain. Clear.10 mph51%29.89 "HgN/A
9:20 PM55 °FSunny.10 mph44%29.89 "Hg10 mi
8:50 PM55 °FPartly sunny.10 mph44%29.92 "HgN/A
8:20 PM57 °FLight rain. Broken clouds.21 mph41%29.92 "HgN/A
7:50 PM59 °FSunny.8 mph36%29.92 "Hg10 mi
6:50 PM61 °FSunny.7 mph34%29.92 "Hg10 mi
6:20 PM61 °FSunny.10 mph34%29.95 "Hg10 mi
5:50 PM61 °FSunny.10 mph31%29.95 "Hg10 mi
5:20 PM63 °FSunny.13 mph30%29.95 "Hg10 mi
4:50 PM63 °FSunny.13 mph30%29.98 "Hg10 mi
4:20 PM61 °FSunny.15 mph29%29.98 "Hg10 mi
3:50 PM61 °FSunny.14 mph29%30.01 "Hg10 mi
3:20 PM61 °FSunny.14 mph31%30.04 "Hg10 mi
2:50 PM61 °FSunny.15 mph31%30.07 "Hg10 mi
2:20 PM61 °FSunny.14 mph31%30.07 "Hg10 mi
1:50 PM59 °FSunny.13 mph34%30.09 "Hg10 mi
1:20 PM59 °FSunny.13 mph34%30.12 "Hg10 mi
12:50 PM57 °FSunny.12 mph41%30.12 "Hg10 mi
12:20 PM57 °FSunny.13 mph36%30.15 "Hg10 mi
11:50 AM55 °FSunny.9 mph41%30.15 "Hg10 mi
11:20 AM55 °FSunny.12 mph44%30.18 "Hg10 mi
10:50 AM55 °FSunny.9 mph41%30.21 "Hg10 mi
10:20 AM54 °FSunny.9 mph44%30.21 "Hg10 mi
9:50 AM52 °FSunny.8 mph47%30.21 "Hg10 mi
9:20 AM48 °FSunny.7 mph62%30.24 "Hg10 mi
8:50 AM45 °FSunny.7 mph66%30.24 "Hg10 mi
8:20 AM43 °FSunny.3 mph71%30.24 "Hg10 mi
7:50 AM41 °FSunny.5 mph70%30.24 "Hg10 mi
7:20 AM37 °FClear.3 mph81%30.24 "Hg10 mi
6:50 AM37 °FClear.3 mph81%30.27 "Hg10 mi
6:20 AM37 °FClear.3 mph81%30.27 "Hg10 mi
5:50 AM37 °FClear.3 mph81%30.27 "Hg10 mi
5:20 AM39 °FClear.3 mph75%30.27 "Hg10 mi
4:50 AM39 °FClear.3 mph75%30.27 "Hg10 mi
4:20 AM37 °FClear.3 mph81%30.30 "Hg10 mi
3:50 AM39 °FClear.2 mph75%30.30 "Hg10 mi
3:20 AM41 °FClear.2 mph70%30.30 "Hg10 mi
2:50 AM41 °FClear.3 mph76%30.30 "Hg10 mi
2:20 AM41 °FClear.2 mph70%30.33 "Hg10 mi
1:50 AM41 °FClear.3 mph76%30.33 "Hg10 mi
1:20 AM43 °FClear.2 mph71%30.33 "Hg10 mi
12:50 AM41 °FClear.3 mph76%30.33 "Hg10 mi
12:20 AM43 °FClear.2 mph71%30.33 "Hg10 mi
Weather by CustomWeather, © 2014

See weather overview